TimeCST,TemperatureF,Dew PointF,Humidity,Sea Level PressureIn,VisibilityMPH,Wind Direction,Wind SpeedMPH,Gust SpeedMPH,PrecipitationIn,Events,Conditions,WindDirDegrees,DateUTC
12:15 AM,42.8,26.6,53,30.18,10.0,Calm,Calm,-,N/A,,Clear,0,2012-11-08 06:15:00
12:35 AM,42.8,26.6,53,30.17,10.0,Calm,Calm,-,N/A,,Clear,0,2012-11-08 06:35:00
1:15 AM,42.8,26.6,53,30.17,10.0,Calm,Calm,-,N/A,,Clear,0,2012-11-08 07:15:00
1:35 AM,42.8,26.6,53,30.16,10.0,Calm,Calm,-,N/A,,Clear,0,2012-11-08 07:35:00
1:55 AM,42.8,28.4,57,30.16,10.0,Calm,Calm,-,N/A,,Clear,0,2012-11-08 07:55:00
2:15 AM,42.8,28.4,57,30.15,10.0,Calm,Calm,-,N/A,,Clear,0,2012-11-08 08:15:00
2:35 AM,41.0,30.2,65,30.15,10.0,Calm,Calm,-,N/A,,Clear,0,2012-11-08 08:35:00
2:55 AM,39.2,28.4,65,30.15,10.0,Calm,Calm,-,N/A,,Clear,0,2012-11-08 08:55:00
3:15 AM,39.2,28.4,65,30.14,10.0,Calm,Calm,-,N/A,,Clear,0,2012-11-08 09:15:00
3:35 AM,42.8,30.2,61,30.14,10.0,Calm,Calm,-,N/A,,Clear,0,2012-11-08 09:35:00
3:55 AM,41.0,28.4,61,30.14,10.0,Calm,Calm,-,N/A,,Clear,0,2012-11-08 09:55:00
4:15 AM,39.2,28.4,65,30.14,10.0,Calm,Calm,-,N/A,,Clear,0,2012-11-08 10:15:00
4:35 AM,39.2,28.4,65,30.14,10.0,Calm,Calm,-,N/A,,Clear,0,2012-11-08 10:35:00
4:55 AM,39.2,30.2,70,30.14,10.0,Calm,Calm,-,N/A,,Clear,0,2012-11-08 10:55:00
5:15 AM,41.0,30.2,65,30.14,10.0,Calm,Calm,-,N/A,,Clear,0,2012-11-08 11:15:00
5:35 AM,41.0,30.2,65,30.15,10.0,Calm,Calm,-,N/A,,Clear,0,2012-11-08 11:35:00
5:55 AM,42.8,30.2,61,30.15,10.0,Calm,Calm,-,N/A,,Clear,0,2012-11-08 11:55:00
6:15 AM,44.6,32.0,61,30.15,10.0,Calm,Calm,-,N/A,,Clear,0,2012-11-08 12:15:00
6:55 AM,44.6,32.0,61,30.16,10.0,Calm,Calm,-,N/A,,Clear,0,2012-11-08 12:55:00
7:15 AM,42.8,32.0,66,30.16,10.0,Calm,Calm,-,N/A,,Clear,0,2012-11-08 13:15:00
7:35 AM,42.8,32.0,66,30.17,10.0,Calm,Calm,-,N/A,,Clear,0,2012-11-08 13:35:00
7:55 AM,42.8,33.8,70,30.18,10.0,Calm,Calm,-,N/A,,Clear,0,2012-11-08 13:55:00
8:15 AM,51.8,35.6,54,30.18,10.0,Calm,Calm,-,N/A,,Clear,0,2012-11-08 14:15:00
8:35 AM,53.6,35.6,51,30.19,10.0,Calm,Calm,-,N/A,,Clear,0,2012-11-08 14:35:00
8:55 AM,55.4,37.4,51,30.19,10.0,Calm,Calm,-,N/A,,Clear,0,2012-11-08 14:55:00
9:15 AM,60.8,35.6,39,30.20,10.0,Calm,Calm,-,N/A,,Clear,0,2012-11-08 15:15:00
9:35 AM,62.6,35.6,37,30.20,10.0,Calm,Calm,-,N/A,,Clear,0,2012-11-08 15:35:00
9:55 AM,64.4,35.6,34,30.20,10.0,Calm,Calm,-,N/A,,Clear,0,2012-11-08 15:55:00
10:15 AM,66.2,35.6,32,30.19,10.0,Calm,Calm,-,N/A,,Clear,0,2012-11-08 16:15:00
10:35 AM,68.0,35.6,30,30.19,10.0,Calm,Calm,-,N/A,,Clear,0,2012-11-08 16:35:00
10:55 AM,69.8,35.6,28,30.18,10.0,Calm,Calm,-,N/A,,Clear,0,2012-11-08 16:55:00
11:15 AM,71.6,33.8,25,30.18,10.0,South,10.4,16.1,N/A,,Clear,180,2012-11-08 17:15:00
11:35 AM,71.6,35.6,27,30.17,10.0,South,11.5,-,N/A,,Clear,190,2012-11-08 17:35:00
11:55 AM,73.4,35.6,25,30.16,10.0,South,9.2,-,N/A,,Clear,190,2012-11-08 17:55:00
12:15 PM,73.4,35.6,25,30.15,10.0,South,11.5,-,N/A,,Clear,180,2012-11-08 18:15:00
12:35 PM,73.4,35.6,25,30.14,10.0,South,11.5,16.1,N/A,,Clear,170,2012-11-08 18:35:00
12:55 PM,75.2,35.6,24,30.12,10.0,South,12.7,16.1,N/A,,Clear,170,2012-11-08 18:55:00
1:15 PM,78.8,35.6,21,30.10,10.0,SSE,11.5,17.3,N/A,,Clear,160,2012-11-08 19:15:00
1:35 PM,75.2,33.8,22,30.09,10.0,SSE,13.8,20.7,N/A,,Clear,150,2012-11-08 19:35:00
1:55 PM,73.4,33.8,23,30.09,10.0,South,16.1,21.9,N/A,,Clear,170,2012-11-08 19:55:00
2:15 PM,73.4,33.8,23,30.08,10.0,SSE,11.5,19.6,N/A,,Clear,160,2012-11-08 20:15:00
2:35 PM,75.2,33.8,22,30.08,10.0,South,12.7,-,N/A,,Clear,180,2012-11-08 20:35:00
2:55 PM,77.0,33.8,21,30.07,10.0,South,13.8,-,N/A,,Clear,180,2012-11-08 20:55:00
3:15 PM,77.0,32.0,19,30.06,10.0,South,12.7,16.1,N/A,,Clear,180,2012-11-08 21:15:00
3:35 PM,77.0,33.8,21,30.05,10.0,South,4.6,-,N/A,,Clear,170,2012-11-08 21:35:00
3:55 PM,78.8,32.0,18,30.05,10.0,South,18.4,-,N/A,,Clear,180,2012-11-08 21:55:00
4:15 PM,75.2,30.2,19,30.06,10.0,South,12.7,-,N/A,,Clear,170,2012-11-08 22:15:00
4:35 PM,73.4,32.0,22,30.06,10.0,South,12.7,-,N/A,,Clear,170,2012-11-08 22:35:00
4:55 PM,73.4,30.2,20,30.05,10.0,South,11.5,-,N/A,,Clear,180,2012-11-08 22:55:00
5:15 PM,73.4,30.2,20,30.05,10.0,South,9.2,-,N/A,,Scattered Clouds,170,2012-11-08 23:15:00
5:35 PM,71.6,30.2,22,30.05,10.0,SSW,15.0,-,N/A,,Partly Cloudy,210,2012-11-08 23:35:00
5:55 PM,71.6,30.2,22,30.06,10.0,South,8.1,-,N/A,,Clear,180,2012-11-08 23:55:00
6:15 PM,69.8,32.0,25,30.06,10.0,SSE,6.9,-,N/A,,Scattered Clouds,160,2012-11-09 00:15:00
6:35 PM,-9999,-9999,N/A,30.06,-9999.0,SSE,5.8,-,N/A,,Unknown,160,2012-11-09 00:35:00
6:55 PM,62.6,30.2,30,30.07,10.0,Calm,Calm,-,N/A,,Clear,0,2012-11-09 00:55:00
7:15 PM,60.8,32.0,34,30.08,10.0,Calm,Calm,-,N/A,,Clear,0,2012-11-09 01:15:00
7:35 PM,64.4,32.0,30,30.08,10.0,Calm,Calm,-,N/A,,Clear,0,2012-11-09 01:35:00
7:55 PM,57.2,30.2,36,30.09,10.0,Calm,Calm,-,N/A,,Clear,0,2012-11-09 01:55:00
8:15 PM,55.4,30.2,38,30.09,10.0,Calm,Calm,-,N/A,,Clear,0,2012-11-09 02:15:00
8:35 PM,53.6,30.2,41,30.09,10.0,Calm,Calm,-,N/A,,Clear,0,2012-11-09 02:35:00
8:55 PM,53.6,32.0,44,30.08,10.0,Calm,Calm,-,N/A,,Clear,0,2012-11-09 02:55:00
9:15 PM,57.2,33.8,41,30.09,10.0,Calm,Calm,-,N/A,,Clear,0,2012-11-09 03:15:00
9:35 PM,53.6,32.0,44,30.09,10.0,Calm,Calm,-,N/A,,Clear,0,2012-11-09 03:35:00
9:55 PM,51.8,30.2,44,30.09,10.0,Calm,Calm,-,N/A,,Clear,0,2012-11-09 03:55:00
10:15 PM,48.2,30.2,50,30.09,10.0,Calm,Calm,-,N/A,,Clear,0,2012-11-09 04:15:00
10:35 PM,46.4,30.2,53,30.10,10.0,Calm,Calm,-,N/A,,Clear,0,2012-11-09 04:35:00
10:55 PM,46.4,30.2,53,30.09,10.0,Calm,Calm,-,N/A,,Clear,0,2012-11-09 04:55:00
11:15 PM,48.2,30.2,50,30.10,10.0,Calm,Calm,-,N/A,,Clear,0,2012-11-09 05:15:00
11:35 PM,48.2,32.0,54,30.09,10.0,Calm,Calm,-,N/A,,Clear,0,2012-11-09 05:35:00
11:55 PM,48.2,33.8,58,30.09,10.0,Calm,Calm,-,N/A,,Clear,0,2012-11-09 05:55:00